Voltar ao catálogo

STARLINK-11262

AtivoComunicaçõesVLEO
NORAD 62009·PAYLOAD·🇺🇸 United States

Lançado Nov 18, 2024 de Vandenberg Space Force Base

Loading…

Próximas Passagens (próximas 24 horas)

TLE

AtualizadoSource: CelesTrak SupGP

Época: Sep 15, 2026, 03:02 UTC

1 62009C 24213B   26258.12687500 -.00024725  00000+0 -20362-3 0  2586
2 62009  53.1588 187.6892 0001263  85.3548 310.0659 15.69727400    11

Acompanhe STARLINK-11262 em tempo real com AllMySat

Download on the App Store